Temperature
17 17 17 17 17 17 17 17 17 17 17 17 17 17 16 16 16 16 16 16 16 15 15 15 15 15 15 15 15 15 15 15 15 14 14 14 14 15
17 17 17 17 17 17 17 17 17 17 17 17 17 16 16 16 16 16 15 15 15 15 15 15 15 15 15 15 15 14 14 14 14 14 14 14 14 14
16 16 16 17 17 17 17 17 17 17 16 16 16 16 16 16 15 15 15 15 15 15 15 15 15 14 14 14 14 14 14 14 14 14 14 14 14 14
16 16 16 16 16 16 16 16 16 16 16 16 16 16 15 15 15 15 15 15 15 15 15 15 14 14 14 14 14 14 14 14 14 14 14 14 14 14
16 16 16 16 16 16 16 16 16 16 16 15 15 15 15 15 15 15 15 15 14 14 14 14 14 14 14 14 14 14 14 14 14 14 13 13 13 13
15 15 15 15 15 15 15 15 15 15 15 15 15 15 15 15 15 15 14 14 14 14 14 14 14 14 14 14 13 13 13 13 13 13 13 13 13 13
15 15 15 15 15 15 15 15 15 15 15 15 15 14 14 14 14 14 14 14 14 14 14 14 14 14 13 13 13 13 13 13 13 13 13 13 13 13
15 15 15 15 15 15 15 15 15 15 15 15 14 14 14 14 14 14 14 13 13 14 14 13 13 13 13 13 13 13 13 13 13 13 13 12 12 13
14 14 14 14 14 14 15 15 15 14 14 14 14 14 14 14 14 13 13 13 13 13 13 13 13 13 13 13 13 13 13 13 12 12 12 12 12 12
14 14 14 14 14 14 14 14 14 14 14 14 14 14 13 13 13 13 13 13 13 13 13 13 13 13 13 13 13 13 12 12 12 12 12 12 12 12
14 14 14 14 14 14 13 13 13 14 14 14 13 13 13 13 13 13 13 13 13 13 13 13 13 13 12 12 12 12 12 12 12 12 12 12 12 11
14 14 13 13 13 13 13 13 13 13 13 13 13 13 13 13 13 13 12 12 12 12 12 12 12 12 12 12 12 12 12 12 12 11 11 11 11 11
13 13 13 13 13 13 13 13 13 13 13 13 13 12 12 13 12 12 12 12 12 12 12 12 12 12 12 11 12 12 12 11 11 11 11 11 11 11
13 12 12 13 12 12 12 13 13 12 12 12 12 12 12 12 12 12 12 12 12 12 12 12 12 11 11 11 11 11 11 11 11 11 11 11 11 10
12 12 12 12 12 12 12 12 12 12 12 12 12 12 12 12 12 12 12 12 12 12 12 11 11 11 11 11 11 11 11 11 11 11 11 11 10 10
12 12 12 12 12 12 12 12 12 12 12 12 12 12 12 12 12 12 12 11 11 11 11 11 11 11 11 11 10 10 10 10 10 10 10 10 10 10
12 12 11 11 11 11 11 11 11 11 11 11 11 11 11 11 11 11 11 11 11 11 11 11 11 11 10 10 10 10 10 10 10 10 10 10 10 10
11 11 11 11 11 11 11 11 11 11 11 11 11 11 11 11 11 11 11 11 10 10 10 10 10 10 10 10 10 10 10 10 10 10 10 9 9 9
11 11 10 10 11 11 11 11 11 11 11 11 11 11 11 11 11 11 10 10 10 10 10 10 10 10 9 9 9 10 9 9 9 9 9 9 9 9
10 10 10 10 10 10 10 10 10 10 11 10 10 10 10 10 10 10 10 10 10 10 10 10 10 10 9 9 9 9 9 9 9 9 9 9 9 9
10 10 10 10 10 10 10 10 10 10 10 10 10 10 10 10 10 10 10 10 10 10 10 9 9 9 9 9 9 9 9 9 9 9 9 8 8 8
10 10 10 10 10 10 10 10 10 10 10 10 10 10 10 10 10 9 9 9 9 9 9 9 9 9 9 9 9 8 8 8 8 8 8 8 8 8
10 10 10 10 9 9 9 9 9 9 9 9 9 9 10 9 9 9 9 9 9 9 9 9 9 9 8 8 8 8 8 8 8 8 8 8 8 8
Wind_Speed
3 3 3 4 3 3 3 2 3 4 3 1 0 0 1 2 4 4 3 6 6 5 5 3 3 2 2 2 2 2 3 3 4 5 5 6 7 7
3 3 3 4 4 4 3 3 2 3 3 2 1 0 1 0 1 2 3 5 6 6 6 5 4 3 3 2 1 1 1 2 3 3 4 5 5 6
4 3 4 3 4 4 4 3 2 2 3 3 1 0 1 1 1 2 3 4 5 7 8 7 6 5 4 3 2 1 1 1 2 2 3 3 4 4
3 3 4 3 4 4 4 3 3 2 2 3 2 0 0 1 2 2 2 3 4 7 9 8 7 6 5 4 3 2 1 1 1 2 2 2 3 3
3 3 3 3 4 3 4 3 3 3 2 2 3 1 1 1 1 2 2 1 3 6 9 9 8 8 7 5 4 3 3 2 1 1 1 1 2 2
4 3 3 3 3 4 3 3 3 3 3 3 2 1 1 1 0 1 2 2 2 1 2 5 7 8 8 7 5 5 4 3 2 1 0 0 1 1
4 4 4 1 1 2 2 2 3 3 3 3 2 1 1 1 1 2 2 2 1 1 1 2 3 3 4 6 6 5 4 4 3 3 2 1 0 1
4 4 3 2 2 3 3 2 2 2 3 2 2 2 1 1 2 2 2 2 2 1 1 2 2 3 3 4 6 7 6 5 5 4 4 3 2 1
3 4 5 3 1 2 3 4 4 5 4 2 2 3 2 2 2 2 2 2 3 3 1 2 1 1 1 3 8 8 6 6 6 5 4 3 2 2
3 3 3 2 4 3 3 2 2 2 3 3 2 2 2 2 2 3 4 4 4 2 1 2 1 1 0 2 7 7 7 6 6 6 5 4 3 3
2 2 2 2 3 3 3 3 2 2 1 2 3 3 3 3 2 1 2 3 3 2 1 1 1 1 0 1 3 7 7 6 6 6 6 6 5 3
2 1 2 3 3 3 3 3 3 3 2 2 2 4 4 4 4 3 2 2 2 1 0 1 1 1 1 0 1 3 4 5 6 5 5 6 5 3
3 2 2 2 3 3 4 3 4 3 4 3 3 3 3 2 3 3 2 2 2 2 1 0 1 1 1 1 0 1 2 2 3 2 5 6 5 4
4 3 2 2 3 4 4 4 5 4 3 3 2 2 2 2 2 2 2 1 2 2 2 1 1 1 1 1 1 0 0 1 2 2 2 4 5 6
4 4 4 5 4 4 6 6 4 3 3 3 3 3 2 1 1 1 1 2 2 3 3 1 1 1 1 1 1 1 1 1 1 1 1 2 3 3
4 5 6 7 6 5 4 4 4 3 3 3 2 2 1 1 1 1 1 2 2 2 2 2 2 1 1 2 2 1 1 1 1 2 2 1 2 3
4 3 3 2 2 3 2 3 3 3 4 3 2 2 2 1 1 1 1 2 2 2 1 1 2 3 2 2 2 2 1 1 1 1 1 1 2 3
3 3 3 3 2 2 2 2 2 3 3 3 3 3 2 2 2 1 1 2 2 2 1 1 1 1 1 2 1 1 1 1 1 1 1 1 2 1
1 3 3 3 3 2 2 2 2 2 2 2 2 2 2 2 2 1 1 2 2 2 1 1 1 1 2 2 1 1 1 1 1 1 1 1 1 1
2 3 3 3 3 3 3 3 2 2 1 1 2 2 1 2 2 2 2 2 2 2 1 1 1 1 2 2 1 1 2 1 1 1 1 1 0 1
3 3 2 2 3 3 2 2 2 2 2 1 1 1 1 2 2 2 2 2 1 2 2 2 2 1 1 1 1 1 1 2 2 2 1 1 1 2
3 3 3 2 2 2 2 1 1 2 2 2 2 2 2 2 2 2 2 1 2 2 2 1 1 1 1 1 2 2 1 1 1 1 1 2 2 2
3 2 2 3 3 2 2 2 2 2 2 2 2 2 2 2 2 2 2 2 2 1 1 1 1 1 1 2 2 2 2 1 1 0 1 3 4 5
Wind_Direction
288 290 286 289 295 289 279 269 265 284 285 262 266 119 58 117 143 161 173 194 194 196 204 211 225 232 236 254 262 275 288 289 270 262 266 271 272 271
274 295 300 301 301 297 290 286 273 269 282 295 268 319 37 128 150 185 175 187 192 195 196 196 195 193 200 210 240 278 299 313 308 281 273 275 276 276
292 295 291 290 305 305 311 307 304 297 282 297 327 43 24 55 231 223 183 182 190 199 197 196 193 190 189 197 207 226 257 318 333 334 318 306 299 284
288 290 295 301 301 299 309 307 307 300 290 291 294 303 311 232 230 240 228 211 194 197 193 195 197 196 192 189 191 196 200 209 315 324 333 348 342 317
276 270 275 287 296 303 306 307 306 310 300 275 277 276 284 288 287 282 282 265 222 190 192 199 202 202 199 192 192 198 197 192 217 284 310 341 358 2
286 278 267 264 282 289 292 308 308 305 293 276 258 248 249 267 88 291 306 312 302 237 200 199 202 205 201 194 198 202 199 197 202 202 175 25 25 14
286 280 271 258 290 284 290 303 305 305 307 305 297 307 301 0 315 294 309 305 292 304 289 220 180 192 201 205 204 203 201 202 201 192 184 181 235 334
295 295 278 248 246 242 255 254 267 276 288 298 307 302 312 310 298 297 311 315 292 284 289 269 177 187 189 189 193 193 194 194 192 191 192 195 209 255
287 294 295 306 315 287 274 243 242 249 239 242 275 283 278 303 302 291 291 283 273 271 260 271 235 216 166 171 174 178 186 188 188 193 194 197 211 235
272 275 284 300 309 319 296 277 247 248 236 226 232 255 256 275 273 269 266 268 262 266 267 267 256 256 55 149 175 177 187 192 193 197 198 208 226 243
266 277 267 252 297 317 295 276 264 251 227 196 205 215 224 228 234 286 282 276 274 238 226 246 269 257 212 171 188 189 193 200 207 207 210 218 230 244
262 251 255 254 253 264 259 262 269 282 275 265 238 230 221 218 219 228 261 275 285 270 208 231 279 313 293 175 144 181 203 220 220 215 222 229 226 215
285 278 275 279 259 262 268 263 261 279 281 258 240 233 226 217 212 219 227 249 275 286 307 339 290 292 284 305 309 187 178 176 189 204 223 229 225 202
298 303 308 289 275 274 267 266 279 279 271 266 255 242 233 232 213 202 200 235 246 250 269 242 243 242 273 300 280 270 198 173 160 173 187 203 214 220
299 297 282 262 258 256 244 254 267 258 253 254 249 248 227 211 177 170 200 223 239 255 254 229 223 252 239 268 280 279 267 245 195 163 154 170 192 188
292 288 272 257 254 261 260 251 244 252 251 258 260 256 245 202 194 198 219 227 238 255 239 213 200 209 249 260 247 248 248 233 207 164 156 201 209 180
289 269 269 269 259 255 252 256 251 243 247 253 255 256 245 242 217 199 238 267 266 265 243 230 205 200 221 258 264 246 246 258 219 165 167 224 223 192
277 268 266 272 274 278 278 267 264 262 249 236 238 243 238 226 230 222 229 250 257 260 253 225 212 225 265 311 259 247 283 300 291 196 205 234 246 190
258 275 283 286 289 292 292 291 282 277 266 257 253 245 233 223 233 229 236 258 260 259 259 247 222 224 243 266 272 221 236 269 276 260 247 266 269 214
267 271 287 300 303 302 307 311 308 306 285 266 280 286 247 227 237 241 239 249 268 285 271 272 248 222 221 243 279 277 232 224 232 257 279 299 329 99
292 290 293 296 297 299 300 303 307 317 313 294 280 278 266 228 228 244 253 252 266 271 261 253 248 217 204 183 252 251 218 219 209 214 230 245 272 252
301 304 302 291 296 306 300 291 291 303 308 307 299 282 265 255 246 244 250 235 251 262 264 259 195 202 214 225 252 252 238 229 233 267 263 236 228 239
317 311 307 307 308 310 310 295 290 297 306 304 296 282 261 265 273 268 252 248 256 268 269 245 223 219 239 233 240 248 237 226 245 124 299 271 245 230
Height
1502 1502 1501 1501 1501 1501 1501 1501 1501 1499 1498 1497 1496 1496 1495 1494 1493 1493 1492 1490 1490 1489 1489 1488 1487 1486 1486 1486 1485 1485 1485 1484 1484 1484 1484 1484 1484 1484
1500 1499 1499 1498 1498 1498 1498 1498 1497 1497 1495 1495 1494 1493 1492 1491 1490 1490 1489 1488 1488 1487 1487 1486 1485 1484 1484 1483 1483 1482 1482 1482 1481 1481 1481 1480 1480 1480
1498 1497 1497 1496 1495 1495 1495 1495 1494 1494 1493 1492 1492 1490 1490 1489 1488 1487 1487 1486 1485 1485 1485 1484 1483 1482 1481 1481 1481 1480 1480 1479 1479 1479 1478 1477 1477 1476
1495 1494 1494 1494 1493 1492 1492 1492 1491 1491 1491 1489 1489 1488 1487 1486 1486 1485 1485 1484 1483 1483 1482 1482 1481 1480 1479 1479 1478 1478 1477 1477 1476 1476 1475 1475 1474 1474
1492 1491 1491 1490 1490 1489 1489 1488 1488 1488 1487 1487 1486 1485 1484 1484 1484 1483 1483 1482 1481 1481 1480 1479 1478 1478 1477 1477 1476 1475 1474 1474 1474 1473 1473 1472 1472 1472
1489 1488 1488 1487 1487 1486 1486 1485 1485 1484 1484 1483 1483 1482 1482 1481 1481 1480 1480 1480 1479 1479 1478 1477 1476 1476 1475 1474 1474 1473 1473 1472 1472 1471 1471 1471 1471 1470
1485 1485 1484 1484 1483 1483 1482 1482 1481 1481 1481 1480 1480 1479 1479 1479 1478 1477 1477 1477 1477 1477 1476 1476 1475 1473 1473 1472 1471 1471 1470 1470 1470 1470 1469 1469 1469 1469
1482 1481 1481 1480 1479 1479 1479 1478 1478 1478 1478 1477 1477 1476 1476 1476 1476 1475 1475 1475 1475 1475 1474 1474 1473 1472 1471 1470 1469 1469 1469 1468 1468 1468 1467 1467 1467 1467
1478 1478 1478 1477 1476 1476 1475 1475 1475 1475 1475 1475 1474 1473 1474 1474 1474 1473 1473 1472 1472 1472 1472 1471 1471 1470 1470 1469 1468 1467 1467 1466 1466 1466 1466 1466 1466 1465
1475 1474 1474 1473 1473 1472 1472 1471 1471 1471 1471 1471 1471 1471 1471 1471 1471 1471 1471 1470 1470 1470 1470 1469 1469 1469 1468 1467 1466 1466 1465 1465 1465 1464 1464 1464 1464 1464
1471 1470 1470 1470 1469 1469 1469 1469 1468 1468 1468 1468 1468 1468 1468 1468 1468 1468 1468 1468 1467 1467 1467 1467 1467 1466 1466 1465 1465 1465 1464 1464 1463 1463 1463 1463 1463 1462
1468 1467 1467 1466 1466 1466 1466 1465 1465 1464 1465 1465 1465 1465 1465 1465 1465 1465 1465 1465 1465 1465 1465 1465 1465 1464 1464 1463 1463 1463 1462 1462 1462 1462 1461 1461 1461 1461
1465 1464 1464 1463 1463 1462 1462 1462 1462 1462 1462 1462 1462 1462 1462 1462 1462 1462 1462 1462 1462 1462 1462 1462 1462 1462 1462 1461 1461 1461 1461 1460 1460 1460 1460 1460 1460 1460
1462 1462 1461 1460 1460 1459 1459 1459 1459 1459 1459 1459 1459 1459 1459 1459 1459 1460 1460 1460 1460 1460 1460 1460 1459 1459 1459 1458 1459 1459 1459 1459 1459 1458 1458 1459 1459 1459
1459 1458 1457 1457 1456 1456 1456 1456 1456 1456 1456 1456 1456 1457 1458 1457 1457 1457 1457 1457 1457 1457 1457 1457 1457 1457 1457 1457 1456 1456 1457 1457 1457 1457 1457 1457 1457 1457
1455 1455 1454 1453 1453 1453 1453 1453 1453 1453 1453 1453 1453 1454 1454 1454 1454 1454 1454 1454 1453 1453 1454 1454 1454 1454 1454 1455 1455 1454 1455 1455 1455 1455 1455 1455 1456 1456
1452 1451 1451 1450 1450 1450 1450 1450 1450 1450 1450 1450 1450 1451 1451 1451 1451 1451 1451 1451 1450 1450 1451 1451 1451 1451 1452 1452 1452 1452 1453 1453 1453 1453 1453 1453 1454 1454
1449 1448 1448 1448 1447 1447 1447 1448 1448 1447 1447 1447 1447 1447 1448 1448 1448 1448 1448 1448 1448 1448 1448 1448 1448 1449 1449 1449 1450 1450 1450 1450 1451 1451 1451 1451 1452 1452
1447 1446 1445 1445 1445 1445 1445 1445 1444 1444 1444 1444 1444 1445 1445 1445 1445 1445 1445 1445 1446 1446 1446 1446 1446 1446 1446 1446 1447 1448 1448 1448 1448 1449 1449 1449 1449 1450
1444 1444 1443 1443 1442 1442 1442 1442 1441 1441 1441 1441 1441 1441 1442 1442 1442 1442 1442 1443 1442 1443 1443 1443 1443 1443 1443 1444 1444 1445 1446 1446 1446 1446 1446 1447 1447 1448
1442 1441 1441 1440 1439 1439 1438 1438 1438 1438 1438 1438 1438 1439 1439 1439 1439 1440 1440 1440 1440 1439 1439 1440 1440 1441 1441 1442 1442 1442 1443 1444 1444 1444 1444 1444 1444 1445
1440 1439 1438 1437 1437 1436 1436 1436 1435 1435 1435 1435 1435 1436 1436 1436 1436 1437 1437 1437 1437 1437 1437 1437 1438 1438 1438 1438 1438 1439 1440 1441 1441 1441 1442 1442 1442 1442
1438 1437 1436 1436 1435 1434 1434 1433 1433 1432 1432 1432 1432 1433 1433 1433 1433 1434 1434 1434 1435 1435 1435 1435 1435 1435 1435 1436 1436 1437 1437 1438 1438 1438 1439 1439 1440 1440